| time (UTC) | temp C | wind direction | speed KPH | gust KPH | rain 1hr cm | rain 24hr cm | rain mn cm | humidity % | barometer mb |
| 20260831112338 | 26 | 320 | 0.0 | 0.0 | 0.00 | 0.10 | 0.00 | 64 | 1010.3 |
| 20260831111344 | 26 | 320 | 0.0 | 0.0 | 0.00 | 0.10 | 0.00 | 64 | 1010.0 |
| 20260831110356 | 26 | 320 | 0.0 | 0.0 | 0.00 | 0.10 | 0.00 | 63 | 1009.7 |
| 20260831105403 | 27 | 252 | 0.0 | 1.6 | 0.00 | 0.10 | 0.00 | 62 | 1009.5 |
| 20260831104329 | 27 | 252 | 0.0 | 0.0 | 0.00 | 0.10 | 0.00 | 62 | 1009.4 |
| 20260831103336 | 27 | 252 | 0.0 | 1.6 | 0.00 | 0.10 | 0.00 | 61 | 1009.1 |
| 20260831102327 | 27 | 252 | 0.0 | 1.6 | 0.00 | 0.10 | 0.00 | 61 | 1009.1 |
| 20260831101335 | 27 | 207 | 0.0 | 1.6 | 0.00 | 0.10 | 0.00 | 61 | 1009.2 |
| 20260831100341 | 27 | 113 | 0.0 | 4.8 | 0.00 | 0.10 | 0.00 | 60 | 1009.3 |
| 20260831095327 | 27 | 163 | 1.6 | 11.3 | 0.00 | 0.10 | 0.00 | 60 | 1009.3 |
| 20260831094334 | 27 | 182 | 3.2 | 9.7 | 0.00 | 0.10 | 0.00 | 61 | 1009.4 |
| 20260831093344 | 27 | 167 | 1.6 | 12.9 | 0.00 | 0.10 | 0.00 | 61 | 1009.7 |
| 20260831092332 | 27 | 187 | 6.4 | 11.3 | 0.00 | 0.10 | 0.00 | 61 | 1009.7 |
| 20260831091339 | 27 | 144 | 4.8 | 16.1 | 0.00 | 0.10 | 0.00 | 62 | 1009.9 |
| 20260831090329 | 27 | 163 | 6.4 | 17.7 | 0.00 | 0.10 | 0.00 | 61 | 1009.7 |
| 20260831085356 | 27 | 173 | 4.8 | 11.3 | 0.00 | 0.10 | 0.00 | 60 | 1009.6 |
| 20260831084401 | 27 | 76 | 1.6 | 9.7 | 0.00 | 0.10 | 0.00 | 58 | 1009.5 |
| 20260831083328 | 27 | 156 | 6.4 | 9.7 | 0.00 | 0.10 | 0.00 | 59 | 1009.6 |
| 20260831082355 | 27 | 180 | 3.2 | 9.7 | 0.00 | 0.10 | 0.00 | 60 | 1009.7 |
| 20260831081326 | 27 | 127 | 3.2 | 8.0 | 0.00 | 0.10 | 0.00 | 59 | 1009.7 |
| 20260831080353 | 27 | 53 | 9.7 | 19.3 | 0.00 | 0.10 | 0.00 | 59 | 1009.8 |
| 20260831075338 | 27 | 340 | 8.0 | 17.7 | 0.00 | 0.10 | 0.00 | 61 | 1009.6 |
| 20260831074406 | 27 | 345 | 8.0 | 22.5 | 0.00 | 0.10 | 0.00 | 62 | 1009.6 |
| 20260831073331 | 27 | 334 | 12.9 | 27.4 | 0.00 | 0.10 | 0.00 | 64 | 1009.7 |
| 20260831072341 | 27 | 348 | 14.5 | 29.0 | 0.00 | 0.10 | 0.00 | 66 | 1009.8 |
| 20260831071347 | 27 | 360 | 11.3 | 32.2 | 0.00 | 0.10 | 0.00 | 67 | 1009.9 |
| 20260831070332 | 26 | 327 | 9.7 | 25.7 | 0.03 | 0.10 | 0.00 | 67 | 1009.9 |
| 20260831065400 | 26 | 331 | 19.3 | 38.6 | 0.03 | 0.10 | 0.10 | 68 | 1009.8 |
| 20260831064329 | 26 | 255 | 16.1 | 33.8 | 0.03 | 0.10 | 0.10 | 70 | 1009.6 |
| 20260831063335 | 26 | 24 | 17.7 | 40.2 | 0.05 | 0.10 | 0.10 | 70 | 1009.3 |
| 20260831062342 | 27 | 317 | 16.1 | 33.8 | 0.05 | 0.10 | 0.10 | 67 | 1009.6 |
| 20260831061329 | 27 | 11 | 19.3 | 37.0 | 0.08 | 0.10 | 0.10 | 66 | 1009.3 |
| 20260831060340 | 27 | 355 | 12.9 | 27.4 | 0.05 | 0.08 | 0.08 | 63 | 1009.2 |
| 20260831055327 | 27 | 42 | 0.0 | 4.8 | 0.08 | 0.08 | 0.08 | 61 | 1009.1 |
| 20260831054334 | 28 | 268 | 1.6 | 20.9 | 0.08 | 0.08 | 0.08 | 59 | 1009.2 |
| 20260831053342 | 27 | 242 | 6.4 | 19.3 | 0.05 | 0.05 | 0.05 | 60 | 1009.2 |
| 20260831052353 | 27 | 239 | 6.4 | 25.7 | 0.05 | 0.05 | 0.05 | 62 | 1009.4 |
| 20260831051339 | 27 | 225 | 17.7 | 37.0 | 0.03 | 0.03 | 0.03 | 62 | 1009.8 |
| 20260831050326 | 27 | 236 | 20.9 | 46.7 | 0.03 | 0.03 | 0.03 | 61 | 1010.0 |
| 20260831045333 | 28 | 232 | 19.3 | 37.0 | 0.00 | 0.00 | 0.00 | 58 | 1009.7 |
| 20260831044400 | 29 | 175 | 17.7 | 46.7 | 0.00 | 0.00 | 0.00 | 57 | 1008.9 |
| 20260831043329 | 30 | 186 | 19.3 | 37.0 | 0.00 | 0.00 | 0.00 | 55 | 1008.7 |
| 20260831042336 | 32 | 153 | 11.3 | 30.6 | 0.00 | 0.00 | 0.00 | 55 | 1007.8 |
| 20260831041402 | 33 | 211 | 17.7 | 35.4 | 0.00 | 0.00 | 0.00 | 43 | 1007.6 |
| 20260831040326 | 35 | 213 | 19.3 | 33.8 | 0.00 | 0.00 | 0.00 | 38 | 1007.7 |
| 20260831035337 | 37 | 170 | 20.9 | 43.5 | 0.00 | 0.00 | 0.00 | 33 | 1007.5 |
| 20260831034344 | 38 | 272 | 0.0 | 12.9 | 0.00 | 0.00 | 0.00 | 29 | 1007.1 |
| 20260831033332 | 38 | 312 | 1.6 | 11.3 | 0.00 | 0.00 | 0.00 | 29 | 1006.7 |
| 20260831032358 | 38 | 279 | 3.2 | 8.0 | 0.00 | 0.00 | 0.00 | 29 | 1006.8 |
| 20260831031347 | 38 | 316 | 1.6 | 4.8 | 0.00 | 0.00 | 0.00 | 29 | 1006.7 |
| 20260831030334 | 38 | 284 | 1.6 | 6.4 | 0.00 | 0.00 | 0.00 | 29 | 1006.5 |
| 20260831025341 | 38 | 258 | 4.8 | 12.9 | 0.00 | 0.00 | 0.00 | 29 | 1006.5 |
| 20260831024329 | 38 | 260 | 3.2 | 8.0 | 0.00 | 0.00 | 0.00 | 30 | 1006.4 |
| 20260831023340 | 38 | 278 | 3.2 | 6.4 | 0.00 | 0.00 | 0.00 | 30 | 1006.2 |
| 20260831022406 | 38 | 303 | 4.8 | 16.1 | 0.00 | 0.00 | 0.00 | 30 | 1006.1 |
| 20260831021331 | 38 | 300 | 1.6 | 8.0 | 0.00 | 0.00 | 0.00 | 30 | 1005.9 |
| 20260831020337 | 38 | 319 | 4.8 | 8.0 | 0.00 | 0.00 | 0.00 | 30 | 1005.8 |
| 20260831015348 | 38 | 313 | 3.2 | 12.9 | 0.00 | 0.00 | 0.00 | 30 | 1005.5 |
| 20260831014333 | 39 | 284 | 3.2 | 9.7 | 0.00 | 0.00 | 0.00 | 29 | 1005.4 |
| 20260831013340 | 39 | 324 | 1.6 | 11.3 | 0.00 | 0.00 | 0.00 | 29 | 1005.3 |
| 20260831012327 | 40 | 302 | 4.8 | 8.0 | 0.00 | 0.00 | 0.00 | 28 | 1005.3 |
| 20260831011339 | 40 | 303 | 4.8 | 12.9 | 0.00 | 0.00 | 0.00 | 28 | 1005.4 |
| 20260831010344 | 40 | 297 | 6.4 | 12.9 | 0.00 | 0.00 | 0.00 | 27 | 1005.4 |
| 20260831005350 | 40 | 11 | 3.2 | 8.0 | 0.00 | 0.00 | 0.00 | 28 | 1005.5 |
| 20260831004336 | 40 | 328 | 4.8 | 12.9 | 0.00 | 0.00 | 0.00 | 28 | 1005.5 |
| 20260831003327 | 40 | 333 | 4.8 | 9.7 | 0.00 | 0.00 | 0.00 | 28 | 1005.5 |
| 20260831002334 | 40 | 347 | 8.0 | 14.5 | 0.00 | 0.00 | 0.00 | 28 | 1005.5 |
| 20260831001340 | 40 | 334 | 4.8 | 17.7 | 0.00 | 0.00 | 0.00 | 28 | 1005.6 |
| 20260831000348 | 41 | 267 | 6.4 | 14.5 | 0.00 | 0.00 | 0.00 | 28 | 1005.7 |
| 20260830235333 | 41 | 275 | 9.7 | 14.5 | 0.00 | 0.00 | 0.00 | 27 | 1005.8 |
| 20260830234343 | 41 | 336 | 3.2 | 6.4 | 0.00 | 0.00 | 0.00 | 26 | 1005.8 |
| 20260830233331 | 41 | 208 | 0.0 | 12.9 | 0.00 | 0.00 | 0.00 | 27 | 1005.8 |
| 20260830232337 | 41 | 281 | 4.8 | 17.7 | 0.00 | 0.00 | 0.00 | 27 | 1006.1 |
| 20260830231345 | 41 | 250 | 4.8 | 12.9 | 0.00 | 0.00 | 0.00 | 27 | 1006.1 |
| 20260830230335 | 41 | 164 | 4.8 | 14.5 | 0.00 | 0.00 | 0.00 | 27 | 1006.2 |
| 20260830225402 | 41 | 190 | 8.0 | 16.1 | 0.00 | 0.00 | 0.00 | 26 | 1006.5 |
| 20260830224345 | 41 | 225 | 6.4 | 12.9 | 0.00 | 0.00 | 0.00 | 26 | 1006.6 |
| 20260830223333 | 41 | 243 | 6.4 | 11.3 | 0.00 | 0.00 | 0.00 | 26 | 1006.7 |
| 20260830222344 | 41 | 255 | 1.6 | 8.0 | 0.00 | 0.00 | 0.00 | 27 | 1006.8 |
| 20260830221331 | 41 | 261 | 4.8 | 12.9 | 0.00 | 0.00 | 0.00 | 26 | 1007.1 |
| 20260830220336 | 41 | 182 | 4.8 | 9.7 | 0.00 | 0.00 | 0.00 | 27 | 1007.3 |
| 20260830215344 | 41 | 223 | 9.7 | 12.9 | 0.00 | 0.00 | 0.00 | 27 | 1007.6 |
| 20260830214337 | 41 | 9 | 3.2 | 9.7 | 0.00 | 0.00 | 0.00 | 27 | 1007.8 |
| 20260830213343 | 40 | 309 | 3.2 | 9.7 | 0.00 | 0.00 | 0.00 | 28 | 1008.1 |
| 20260830212329 | 40 | 317 | 4.8 | 14.5 | 0.00 | 0.00 | 0.00 | 28 | 1008.2 |
| 20260830211336 | 41 | 267 | 6.4 | 16.1 | 0.00 | 0.00 | 0.00 | 28 | 1008.4 |
| 20260830210327 | 40 | 186 | 1.6 | 8.0 | 0.00 | 0.00 | 0.00 | 28 | 1008.6 |
| 20260830205355 | 40 | 255 | 3.2 | 9.7 | 0.00 | 0.00 | 0.00 | 28 | 1008.7 |
| 20260830204342 | 40 | 325 | 4.8 | 12.9 | 0.00 | 0.00 | 0.00 | 29 | 1009.1 |
| 20260830203330 | 40 | 195 | 3.2 | 9.7 | 0.00 | 0.00 | 0.00 | 29 | 1009.2 |
| 20260830202341 | 39 | 71 | 1.6 | 8.0 | 0.00 | 0.00 | 0.00 | 30 | 1009.4 |
| 20260830201327 | 39 | 67 | 4.8 | 12.9 | 0.00 | 0.00 | 0.00 | 29 | 1009.6 |
| 20260830200336 | 39 | 330 | 4.8 | 12.9 | 0.00 | 0.00 | 0.00 | 29 | 1009.7 |
| 20260830195327 | 39 | 349 | 6.4 | 12.9 | 0.00 | 0.00 | 0.00 | 29 | 1009.8 |
| 20260830194334 | 39 | 150 | 3.2 | 8.0 | 0.00 | 0.00 | 0.00 | 29 | 1009.9 |
| 20260830193341 | 39 | 287 | 1.6 | 4.8 | 0.00 | 0.00 | 0.00 | 30 | 1010.1 |
| 20260830192347 | 38 | 155 | 4.8 | 8.0 | 0.00 | 0.00 | 0.00 | 31 | 1010.3 |
| 20260830191333 | 38 | 298 | 3.2 | 14.5 | 0.00 | 0.00 | 0.00 | 31 | 1010.5 |
| 20260830190406 | 38 | 216 | 6.4 | 14.5 | 0.00 | 0.00 | 0.00 | 31 | 1010.6 |
| 20260830185331 | 38 | 192 | 3.2 | 12.9 | 0.00 | 0.00 | 0.00 | 31 | 1010.8 |
| 20260830184340 | 38 | 186 | 4.8 | 12.9 | 0.00 | 0.00 | 0.00 | 33 | 1010.9 |
| 20260830183347 | 37 | 59 | 4.8 | 12.9 | 0.00 | 0.00 | 0.00 | 32 | 1011.1 |
| 20260830182339 | 37 | 46 | 6.4 | 11.3 | 0.00 | 0.00 | 0.00 | 32 | 1011.2 |
| 20260830181343 | 37 | 208 | 3.2 | 8.0 | 0.00 | 0.00 | 0.00 | 32 | 1011.4 |
| 20260830180329 | 37 | 153 | 3.2 | 12.9 | 0.00 | 0.00 | 0.00 | 33 | 1011.5 |
| 20260830175335 | 37 | 185 | 6.4 | 14.5 | 0.00 | 0.00 | 0.00 | 33 | 1011.6 |
| 20260830174345 | 37 | 175 | 3.2 | 8.0 | 0.00 | 0.00 | 0.00 | 33 | 1011.7 |
| 20260830173333 | 37 | 151 | 9.7 | 17.7 | 0.00 | 0.00 | 0.00 | 34 | 1011.8 |
| 20260830172340 | 36 | 60 | 6.4 | 14.5 | 0.00 | 0.00 | 0.00 | 35 | 1011.8 |
| 20260830171326 | 36 | 134 | 6.4 | 12.9 | 0.00 | 0.00 | 0.00 | 35 | 1011.8 |
| 20260830170337 | 36 | 146 | 4.8 | 17.7 | 0.00 | 0.00 | 0.00 | 36 | 1011.8 |
| 20260830165326 | 36 | 132 | 8.0 | 16.1 | 0.00 | 0.00 | 0.00 | 36 | 1011.8 |
| 20260830164334 | 35 | 70 | 3.2 | 14.5 | 0.00 | 0.00 | 0.00 | 36 | 1011.8 |
| 20260830163341 | 35 | 82 | 4.8 | 12.9 | 0.00 | 0.00 | 0.00 | 36 | 1011.8 |
| 20260830162331 | 35 | 92 | 8.0 | 14.5 | 0.00 | 0.00 | 0.00 | 37 | 1011.9 |
| 20260830161338 | 35 | 73 | 4.8 | 12.9 | 0.00 | 0.00 | 0.00 | 37 | 1011.8 |
| 20260830160345 | 34 | 150 | 6.4 | 14.5 | 0.00 | 0.00 | 0.00 | 37 | 1011.8 |
| 20260830155332 | 33 | 109 | 8.0 | 14.5 | 0.00 | 0.00 | 0.00 | 39 | 1011.8 |
| 20260830154343 | 33 | 162 | 6.4 | 17.7 | 0.00 | 0.00 | 0.00 | 40 | 1011.8 |
| 20260830153331 | 33 | 162 | 9.7 | 17.7 | 0.00 | 0.00 | 0.00 | 40 | 1011.8 |
| 20260830152337 | 33 | 109 | 6.4 | 17.7 | 0.00 | 0.00 | 0.00 | 42 | 1011.8 |
| 20260830151329 | 32 | 95 | 4.8 | 16.1 | 0.00 | 0.00 | 0.00 | 42 | 1011.8 |
| 20260830150356 | 32 | 140 | 6.4 | 17.7 | 0.00 | 0.00 | 0.00 | 43 | 1011.7 |
| 20260830145400 | 32 | 96 | 8.0 | 14.5 | 0.00 | 0.00 | 0.00 | 44 | 1011.8 |
| 20260830144346 | 32 | 100 | 8.0 | 22.5 | 0.00 | 0.00 | 0.00 | 44 | 1011.9 |
| 20260830143332 | 31 | 101 | 8.0 | 16.1 | 0.00 | 0.00 | 0.00 | 44 | 1011.9 |
| 20260830142344 | 31 | 74 | 4.8 | 12.9 | 0.00 | 0.00 | 0.00 | 43 | 1011.8 |
| 20260830141331 | 31 | 133 | 3.2 | 16.1 | 0.00 | 0.00 | 0.00 | 44 | 1011.7 |
| 20260830140335 | 31 | 132 | 6.4 | 19.3 | 0.00 | 0.00 | 0.00 | 44 | 1011.6 |
| 20260830135341 | 31 | 91 | 4.8 | 16.1 | 0.00 | 0.00 | 0.00 | 44 | 1011.5 |
| 20260830134331 | 30 | 116 | 3.2 | 19.3 | 0.00 | 0.00 | 0.00 | 45 | 1011.4 |
| 20260830133355 | 30 | 119 | 4.8 | 17.7 | 0.00 | 0.00 | 0.00 | 46 | 1011.3 |
| 20260830132335 | 30 | 97 | 4.8 | 14.5 | 0.00 | 0.00 | 0.00 | 46 | 1011.1 |
| 20260830131343 | 30 | 78 | 1.6 | 11.3 | 0.00 | 0.00 | 0.00 | 47 | 1011.0 |
| 20260830130329 | 30 | 58 | 4.8 | 9.7 | 0.00 | 0.00 | 0.00 | 47 | 1010.8 |
| 20260830125340 | 30 | 92 | 3.2 | 9.7 | 0.00 | 0.00 | 0.00 | 47 | 1010.7 |
| 20260830124326 | 30 | 65 | 3.2 | 6.4 | 0.00 | 0.00 | 0.00 | 48 | 1010.4 |
| 20260830123332 | 30 | 67 | 0.0 | 3.2 | 0.00 | 0.00 | 0.00 | 48 | 1010.2 |
| 20260830122339 | 31 | 78 | 0.0 | 3.2 | 0.00 | 0.00 | 0.00 | 47 | 1010.0 |
| 20260830121331 | 31 | 58 | 0.0 | 8.0 | 0.00 | 0.00 | 0.00 | 47 | 1010.0 |
| 20260830120337 | 31 | 103 | 4.8 | 12.9 | 0.00 | 0.00 | 0.00 | 47 | 1010.0 |
| 20260830115344 | 31 | 100 | 3.2 | 11.3 | 0.00 | 0.00 | 0.00 | 47 | 1010.0 |
| 20260830114352 | 31 | 74 | 6.4 | 16.1 | 0.00 | 0.00 | 0.00 | 46 | 1010.0 |
| 20260830113342 | 31 | 75 | 6.4 | 14.5 | 0.00 | 0.00 | 0.00 | 45 | 1009.9 |